Previsão horária em Plitchenka

Hoje, 26 Fevereiro, Sexta-feira

Tempo Temperatura Precipitação Vento Pressão Humidade
00:00 +1°C° 0 mm 4 m/s 748 mmHg 96%
01:00 +2°C° 0 mm 5 m/s 747 mmHg 97%
02:00 +3°C° 0 mm 5 m/s 747 mmHg 98%
03:00 +3°C° 0 mm 5 m/s 746 mmHg 98%
04:00 +3°C° 0 mm 5 m/s 746 mmHg 98%
05:00 +5°C° 0 mm 5 m/s 745 mmHg 97%
06:00 +3°C° 0 mm 5 m/s 745 mmHg 96%
07:00 +3°C° 0 mm 5 m/s 745 mmHg 96%
08:00 +3°C° 0 mm 6 m/s 744 mmHg 95%
09:00 +3°C° 0 mm 6 m/s 744 mmHg 90%
10:00 +3°C° 0 mm 6 m/s 744 mmHg 85%
11:00 +4°C° 0 mm 6 m/s 744 mmHg 80%
12:00 +4°C° 0 mm 6 m/s 744 mmHg 77%
13:00 +4°C° 0 mm 6 m/s 744 mmHg 75%
14:00 +4°C° 0 mm 6 m/s 744 mmHg 72%
15:00 +5°C° 0 mm 5 m/s 744 mmHg 76%
16:00 +3°C° 0 mm 5 m/s 744 mmHg 80%
17:00 +3°C° 0 mm 4 m/s 743 mmHg 84%
18:00 +1°C° 0 mm 4 m/s 743 mmHg 85%
19:00 +1°C° 0 mm 4 m/s 743 mmHg 86%
20:00 +1°C° 0 mm 4 m/s 743 mmHg 87%
21:00 +1°C° 0 mm 4 m/s 743 mmHg 87%
22:00 +1°C° 0 mm 4 m/s 743 mmHg 88%
23:00 +1°C° 0 mm 4 m/s 742 mmHg 88%

Amanhã, 27 Fevereiro, Sábado

Tempo Temperatura Precipitação Vento Pressão Humidade
00:00 +1°C° 0 mm 4 m/s 743 mmHg 88%
01:00 +1°C° 0 mm 4 m/s 743 mmHg 89%
02:00 +1°C° 0 mm 5 m/s 743 mmHg 89%
03:00 0°C° 0 mm 5 m/s 742 mmHg 90%
04:00 0°C° 0 mm 4 m/s 742 mmHg 91%
05:00 0°C° 0 mm 4 m/s 742 mmHg 92%
06:00 0°C° 0.1 mm 4 m/s 742 mmHg 93%
07:00 0°C° 0.1 mm 4 m/s 742 mmHg 95%
08:00 0°C° 0.1 mm 4 m/s 743 mmHg 97%
09:00 0°C° 0.2 mm 4 m/s 743 mmHg 96%
10:00 0°C° 0.2 mm 4 m/s 743 mmHg 96%
11:00 0°C° 0.2 mm 4 m/s 744 mmHg 96%
12:00 0°C° 0 mm 4 m/s 744 mmHg 96%
13:00 0°C° 0 mm 4 m/s 745 mmHg 95%
14:00 0°C° 0 mm 5 m/s 745 mmHg 95%
15:00 -1°C° 0.1 mm 5 m/s 746 mmHg 95%
16:00 -1°C° 0.1 mm 5 m/s 746 mmHg 96%
17:00 -1°C° 0.1 mm 5 m/s 746 mmHg 96%
18:00 -1°C° 0 mm 5 m/s 747 mmHg 94%
19:00 -1°C° 0 mm 4 m/s 748 mmHg 91%
20:00 -2°C° 0 mm 4 m/s 748 mmHg 89%
21:00 -2°C° 0 mm 4 m/s 749 mmHg 89%
22:00 -2°C° 0 mm 4 m/s 749 mmHg 90%
23:00 -1°C° 0 mm 3 m/s 749 mmHg 90%

Depois de amanhã, 28 Fevereiro, Domingo

Tempo Temperatura Precipitação Vento Pressão Humidade
00:00 -1°C° 0 mm 3 m/s 750 mmHg 90%
01:00 -1°C° 0 mm 3 m/s 750 mmHg 91%
02:00 -1°C° 0 mm 3 m/s 750 mmHg 91%
03:00 -3°C° 0 mm 4 m/s 750 mmHg 90%
04:00 -3°C° 0 mm 4 m/s 750 mmHg 89%
05:00 -3°C° 0 mm 4 m/s 750 mmHg 88%
06:00 -3°C° 0 mm 4 m/s 750 mmHg 88%
07:00 -3°C° 0 mm 4 m/s 751 mmHg 87%
08:00 -3°C° 0 mm 4 m/s 751 mmHg 87%
09:00 -2°C° 0 mm 4 m/s 751 mmHg 83%
10:00 -2°C° 0 mm 4 m/s 750 mmHg 79%
11:00 -1°C° 0 mm 4 m/s 750 mmHg 74%
12:00 -1°C° 0.1 mm 4 m/s 750 mmHg 80%
13:00 0°C° 0.1 mm 4 m/s 750 mmHg 85%
14:00 0°C° 0.1 mm 4 m/s 750 mmHg 90%
15:00 0°C° 0.3 mm 4 m/s 749 mmHg 92%
16:00 0°C° 0.3 mm 4 m/s 749 mmHg 94%
17:00 0°C° 0.3 mm 4 m/s 749 mmHg 97%
18:00 +1°C° 0.2 mm 3 m/s 749 mmHg 97%
19:00 +1°C° 0.2 mm 3 m/s 749 mmHg 97%
20:00 +2°C° 0.2 mm 2 m/s 749 mmHg 97%
21:00 +2°C° 0.2 mm 2 m/s 750 mmHg 97%
22:00 +2°C° 0.2 mm 2 m/s 750 mmHg 98%
23:00 +2°C° 0.2 mm 2 m/s 750 mmHg 98%

1 Março, Segunda-feira

Tempo Temperatura Precipitação Vento Pressão Humidade
00:00 +1°C° 0 mm 2 m/s 751 mmHg 97%
01:00 +1°C° 0 mm 2 m/s 752 mmHg 96%
02:00 +1°C° 0 mm 2 m/s 753 mmHg 95%
03:00 +1°C° 0 mm 2 m/s 753 mmHg 95%
04:00 +1°C° 0 mm 2 m/s 753 mmHg 95%
05:00 +1°C° 0 mm 2 m/s 753 mmHg 94%
06:00 +1°C° 0 mm 2 m/s 754 mmHg 95%
07:00 -1°C° 0 mm 2 m/s 754 mmHg 95%
08:00 -1°C° 0 mm 2 m/s 755 mmHg 96%
09:00 +1°C° 0 mm 2 m/s 755 mmHg 91%
10:00 +1°C° 0 mm 3 m/s 755 mmHg 87%
11:00 +3°C° 0 mm 3 m/s 756 mmHg 82%
12:00 +3°C° 0 mm 3 m/s 756 mmHg 80%
13:00 +4°C° 0 mm 3 m/s 756 mmHg 77%
14:00 +5°C° 0 mm 4 m/s 756 mmHg 75%
15:00 +4°C° 0 mm 3 m/s 756 mmHg 79%
16:00 +4°C° 0 mm 3 m/s 756 mmHg 82%
17:00 +3°C° 0 mm 3 m/s 755 mmHg 86%
18:00 +3°C° 0 mm 3 m/s 755 mmHg 88%
19:00 +2°C° 0 mm 3 m/s 755 mmHg 91%
20:00 +2°C° 0 mm 3 m/s 756 mmHg 93%
21:00 +2°C° 0 mm 3 m/s 755 mmHg 93%
22:00 +1°C° 0 mm 4 m/s 755 mmHg 92%
23:00 +1°C° 0 mm 4 m/s 755 mmHg 92%

2 Março, Terça-feira

Tempo Temperatura Precipitação Vento Pressão Humidade
00:00 +1°C° 0 mm 4 m/s 755 mmHg 90%
01:00 +1°C° 0 mm 4 m/s 754 mmHg 89%
02:00 +1°C° 0 mm 5 m/s 754 mmHg 87%
03:00 0°C° 0 mm 5 m/s 754 mmHg 86%
04:00 0°C° 0 mm 5 m/s 754 mmHg 86%
05:00 0°C° 0 mm 5 m/s 754 mmHg 85%
06:00 -1°C° 0 mm 5 m/s 754 mmHg 86%
07:00 -1°C° 0 mm 5 m/s 754 mmHg 87%
08:00 -1°C° 0 mm 5 m/s 754 mmHg 88%
09:00 0°C° 0 mm 5 m/s 754 mmHg 83%
10:00 +2°C° 0 mm 5 m/s 754 mmHg 79%
11:00 +3°C° 0 mm 5 m/s 754 mmHg 74%
12:00 +5°C° 0 mm 5 m/s 754 mmHg 72%
13:00 +6°C° 0 mm 5 m/s 754 mmHg 70%
14:00 +7°C° 0 mm 5 m/s 753 mmHg 67%
15:00 +6°C° 0 mm 5 m/s 753 mmHg 70%
16:00 +6°C° 0 mm 5 m/s 753 mmHg 72%
17:00 +5°C° 0 mm 4 m/s 752 mmHg 75%
18:00 +4°C° 0 mm 4 m/s 752 mmHg 78%
19:00 +4°C° 0 mm 4 m/s 752 mmHg 81%
20:00 +3°C° 0 mm 4 m/s 752 mmHg 85%
21:00 +1°C° 0 mm 4 m/s 752 mmHg 87%
22:00 +1°C° 0 mm 4 m/s 752 mmHg 89%
23:00 +1°C° 0 mm 3 m/s 752 mmHg 91%

3 Março, Quarta-feira

Tempo Temperatura Precipitação Vento Pressão Humidade
00:00 +1°C° 0 mm 3 m/s 752 mmHg 92%
01:00 +1°C° 0 mm 3 m/s 752 mmHg 93%
02:00 0°C° 0 mm 3 m/s 752 mmHg 94%
03:00 -1°C° 0 mm 4 m/s 752 mmHg 95%
04:00 -1°C° 0 mm 4 m/s 752 mmHg 95%
05:00 -1°C° 0 mm 4 m/s 752 mmHg 96%
06:00 -1°C° 0 mm 4 m/s 752 mmHg 95%
07:00 -1°C° 0 mm 4 m/s 752 mmHg 95%
08:00 0°C° 0 mm 3 m/s 752 mmHg 95%
09:00 0°C° 0 mm 3 m/s 752 mmHg 94%
10:00 0°C° 0 mm 3 m/s 752 mmHg 94%
11:00 +1°C° 0 mm 2 m/s 752 mmHg 93%
12:00 +2°C° 0 mm 2 m/s 752 mmHg 90%
13:00 +2°C° 0 mm 2 m/s 752 mmHg 86%
14:00 +3°C° 0 mm 2 m/s 752 mmHg 83%
15:00 +3°C° 0 mm 2 m/s 752 mmHg 84%
16:00 +4°C° 0 mm 1 m/s 751 mmHg 84%
17:00 +4°C° 0 mm 1 m/s 751 mmHg 85%
18:00 +3°C° 0 mm 1 m/s 751 mmHg 88%
19:00 +2°C° 0 mm 1 m/s 751 mmHg 90%
20:00 0°C° 0 mm 0 m/s 751 mmHg 93%
21:00 +1°C° 0 mm 1 m/s 751 mmHg 93%
22:00 +1°C° 0 mm 1 m/s 751 mmHg 93%
23:00 +1°C° 0 mm 1 m/s 751 mmHg 94%
Mostrar mais

Necessitamos do seu Consentimento

A Meteoprog e os seus Fornecedores de Serviços podem armazenar e aceder a dados pessoais como cookies, identificadores do dispositivo ou outras tecnologias semelhantes existentes no seu dispositivo e processar estes dados para personalizar conteúdos e anúncios, assim como funcionalidades nas redes sociais e análise de tráfego.

  • Armazenar e/ou aceder a informações no seu dispositivo

    Os cookies, identificadores do dispositivo ou outras informações podem ser armazenados ou acedidos no seu dispositivo, para os fins acima indicados.

  • Anúncios e conteúdos personalizados, medição de anúncios e conteúdos, dados sobre o público-alvo e desenvolvimento de produtos

    Os anúncios e os conteúdos podem ser personalizados com base num perfil. Podem ser adicionados dados adicionais para uma maior personalização dos anúncios e dos conteúdos. A eficácia dos anúncios e dos conteúdos pode ser medida. Podem ser obtidas informações sobre o público que visualizou os anúncios e os conteúdos. Estes dados podem ser usados para desenvolver ou melhorar sistemas, softwares ou a experiência do utilizador.

Ao clicar em "Eu concordo”, permitirá o uso de cookies, identificadores do dispositivo e web beacons mencionados ou outras tecnologias semelhantes. As configurações do navegador do seu dispositivo podem ser alteradas.

Para certos fins, podem ser invocados interesses legítimos ao invés de consentimento. Pode ler mais informação sobre este assunto na nossa Política de Privacidade e Cookies.